Weather History for KIKK - November, 2010

Change the Weather History Date:

Saturday, November 13, 2010

  Actual Average Record
Temperature  
Mean Temperature 50 °F -  
Max Temperature 59 °F 49 °F 71 °F (2011)
Min Temperature 42 °F 29 °F 4 °F (1986)
Degree Days  
Heating Degree Days 14    
Moisture  
Dew Point 39 °F    
Average Humidity 67    
Maximum Humidity 94    
Minimum Humidity 45    
Precipitation  
Precipitation 0.02 in - - ()
Sea Level Pressure  
Sea Level Pressure 29.98 in    
Wind  
Wind Speed 10 mph (South)    
Max Wind Speed 23 mph    
Max Gust Speed 28 mph    
Visibility 9 miles    
Events Rain    
Averages and records for this station are not official NWS values.
T = Trace of Precipitation, MM = Missing Value Source: NWS Daily Summary

Daily Weather History Graph

Daily Weather History Graph

Search for Another Location

Airport or City:

Trip Planner

Search our weather history database for the weather conditions in past years. The results will help you decide how hot, cold, wet, or windy it might be!

Date:

Astronomy

Nov. 13, 2010 Rise Set
Actual Time 6:36 AM CST 4:34 PM CST
Civil Twilight 6:07 AM CST 5:03 PM CST
Nautical Twilight 5:34 AM CST 5:36 PM CST
Astronomical Twilight 5:01 AM CST 6:09 PM CST
Moon 12:31 PM CST (11/13) 11:42 PM CST (11/13)
Length of Visible Light 10h 56m
Length of Day
9h 57m
Waxing Crescent, 51% of the Moon is Illuminated
Nov 13
Waxing Crescent
Nov 21
Full
Nov 28
Last Quarter
Dec 5
New
Dec 13
First Quarter

Hourly Weather History & Observations

Time (CST) Temp. Windchill Dew Point Humidity Pressure Visibility Wind Dir Wind Speed Gust Speed Precip Events Conditions
12:00 AM 48.2 °F - 41.0 °F 76% 30.13 in 7.0 mi East 5.8 mph - N/A   Scattered Clouds
12:04 AM 48.2 °F - 41.0 °F 76% 30.13 in 7.0 mi East 5.8 mph - N/A   Scattered Clouds
12:40 AM 51.8 °F - 37.4 °F 58% 30.12 in 10.0 mi ESE 5.8 mph - N/A   Scattered Clouds
1:00 AM 51.8 °F - 37.4 °F 58% 30.11 in 10.0 mi ESE 6.9 mph - N/A   Mostly Cloudy
1:20 AM 51.8 °F - 37.4 °F 58% 30.10 in 10.0 mi ESE 8.1 mph - N/A   Overcast
1:40 AM 50.0 °F - 35.6 °F 58% 30.09 in 10.0 mi ESE 9.2 mph - N/A   Mostly Cloudy
2:00 AM 51.8 °F - 35.6 °F 54% 30.09 in 10.0 mi ESE 8.1 mph - N/A   Mostly Cloudy
2:20 AM 51.8 °F - 35.6 °F 54% 30.08 in 10.0 mi ESE 8.1 mph - N/A   Mostly Cloudy
2:22 AM 51.8 °F - 35.6 °F 54% 30.08 in 10.0 mi ESE 8.1 mph - N/A   Mostly Cloudy
2:42 AM 51.8 °F - 35.6 °F 54% 30.08 in 10.0 mi ESE 6.9 mph - N/A   Overcast
3:02 AM 51.8 °F - 35.6 °F 54% 30.07 in 10.0 mi ESE 8.1 mph - N/A   Overcast
3:22 AM 51.8 °F - 35.6 °F 54% 30.06 in 10.0 mi ESE 5.8 mph - N/A   Overcast
3:42 AM 51.8 °F - 35.6 °F 54% 30.05 in 10.0 mi ESE 6.9 mph - N/A   Overcast
4:02 AM 51.8 °F - 35.6 °F 54% 30.04 in 10.0 mi SE 8.1 mph - N/A   Mostly Cloudy
4:22 AM 51.8 °F - 35.6 °F 54% 30.04 in 10.0 mi SE 6.9 mph - N/A   Overcast
4:42 AM 53.6 °F - 35.6 °F 51% 30.03 in 10.0 mi SE 6.9 mph - N/A   Overcast
5:02 AM 53.6 °F - 35.6 °F 51% 30.02 in 10.0 mi SE 9.2 mph - N/A   Overcast
5:22 AM 53.6 °F - 35.6 °F 51% 30.01 in 10.0 mi SE 9.2 mph - N/A   Mostly Cloudy
5:42 AM 53.6 °F - 35.6 °F 51% 29.99 in 10.0 mi SE 8.1 mph - N/A   Mostly Cloudy
6:02 AM 53.6 °F - 35.6 °F 51% 29.99 in 10.0 mi SE 9.2 mph - N/A   Scattered Clouds
6:22 AM 53.6 °F - 35.6 °F 51% 29.99 in 10.0 mi SE 10.4 mph - N/A   Mostly Cloudy
6:42 AM 55.4 °F - 35.6 °F 47% 29.98 in 10.0 mi SE 10.4 mph - N/A   Mostly Cloudy
7:02 AM 55.4 °F - 35.6 °F 47% 29.97 in 10.0 mi SE 9.2 mph - N/A   Mostly Cloudy
7:22 AM 55.4 °F - 37.4 °F 51% 29.97 in 10.0 mi SE 10.4 mph - N/A   Mostly Cloudy
7:42 AM 55.4 °F - 37.4 °F 51% 29.97 in 10.0 mi SSE 10.4 mph - N/A   Overcast
8:02 AM 57.2 °F - 37.4 °F 48% 29.96 in 10.0 mi SSE 11.5 mph - N/A   Mostly Cloudy
8:22 AM 57.2 °F - 39.2 °F 51% 29.95 in 10.0 mi SSE 11.5 mph - N/A   Scattered Clouds
8:42 AM 59.0 °F - 37.4 °F 45% 29.93 in 10.0 mi SSE 12.7 mph - N/A   Scattered Clouds
9:02 AM 59.0 °F - 39.2 °F 48% 29.93 in 10.0 mi SSE 10.4 mph 16.1 mph N/A   Mostly Cloudy
9:22 AM 57.2 °F - 42.8 °F 59% 29.94 in 10.0 mi South 15.0 mph 20.7 mph N/A Rain Light Rain
9:42 AM 55.4 °F - 46.4 °F 72% 29.94 in 5.0 mi South 17.3 mph - N/A Rain Rain
10:02 AM 53.6 °F - 48.2 °F 82% 29.94 in 7.0 mi South 17.3 mph - 0.02 in Rain Rain
10:22 AM 51.8 °F - 48.2 °F 88% 29.94 in 7.0 mi South 18.4 mph - N/A   Overcast
10:42 AM 51.8 °F - 48.2 °F 88% 29.93 in 10.0 mi South 15.0 mph 21.9 mph N/A   Overcast
11:02 AM 51.8 °F - 48.2 °F 88% 29.93 in 3.0 mi South 15.0 mph 23.0 mph N/A   Overcast
11:22 AM 51.8 °F - 48.2 °F 88% 29.92 in 2.0 mi South 13.8 mph - N/A Rain Light Rain
11:42 AM 53.6 °F - 50.0 °F 88% 29.91 in 4.0 mi South 13.8 mph 20.7 mph N/A   Overcast
12:02 PM 53.6 °F - 51.8 °F 94% 29.90 in 4.0 mi SW 17.3 mph 20.7 mph N/A   Overcast
12:22 PM 51.8 °F - 48.2 °F 88% 29.90 in 7.0 mi SW 15.0 mph - N/A   Overcast
12:42 PM 51.8 °F - 48.2 °F 88% 29.90 in 5.0 mi SW 17.3 mph 24.2 mph N/A   Overcast
1:02 PM 48.2 °F - 46.4 °F 93% 29.90 in 5.0 mi SW 13.8 mph 18.4 mph N/A   Overcast
1:22 PM 48.2 °F - 46.4 °F 93% 29.90 in 10.0 mi WSW 15.0 mph - N/A   Overcast
1:42 PM 48.2 °F - 44.6 °F 87% 29.90 in 10.0 mi SW 15.0 mph 21.9 mph N/A   Overcast
2:02 PM 48.2 °F - 42.8 °F 82% 29.90 in 10.0 mi SW 17.3 mph 23.0 mph N/A   Overcast
2:22 PM 48.2 °F - 42.8 °F 82% 29.90 in 10.0 mi SW 17.3 mph 24.2 mph N/A   Overcast
2:42 PM 46.4 °F 39.5 °F 39.2 °F 76% 29.91 in 10.0 mi SW 17.3 mph 25.3 mph N/A   Overcast
3:02 PM 46.4 °F 39.8 °F 39.2 °F 76% 29.92 in 10.0 mi SW 16.1 mph 26.5 mph N/A   Overcast
3:22 PM 46.4 °F 39.0 °F 37.4 °F 71% 29.92 in 10.0 mi SW 19.6 mph 24.2 mph N/A   Overcast
3:42 PM 44.6 °F 36.6 °F 37.4 °F 76% 29.93 in 10.0 mi WSW 19.6 mph 27.6 mph N/A   Overcast
4:02 PM 44.6 °F 37.4 °F 37.4 °F 76% 29.93 in 10.0 mi WSW 16.1 mph 21.9 mph N/A   Overcast
4:22 PM 44.6 °F 37.8 °F 35.6 °F 71% 29.93 in 10.0 mi WSW 15.0 mph 21.9 mph N/A   Overcast
4:42 PM 44.6 °F 37.4 °F 35.6 °F 71% 29.94 in 10.0 mi SW 16.1 mph 21.9 mph N/A   Overcast
5:02 PM 44.6 °F 36.6 °F 35.6 °F 71% 29.94 in 10.0 mi SW 19.6 mph 25.3 mph N/A   Overcast
5:22 PM 42.8 °F 35.1 °F 35.6 °F 76% 29.95 in 10.0 mi WSW 16.1 mph 21.9 mph N/A   Overcast
5:42 PM 42.8 °F 35.8 °F 35.6 °F 76% 29.95 in 10.0 mi SW 13.8 mph - N/A   Overcast
6:20 PM 42.8 °F 33.5 °F 33.8 °F 70% 29.95 in 10.0 mi SW 23.0 mph 27.6 mph N/A   Overcast
6:22 PM 42.8 °F 34.3 °F 33.8 °F 70% 29.95 in 10.0 mi SW 19.6 mph 27.6 mph N/A   Overcast
6:42 PM 42.8 °F 33.8 °F 33.8 °F 70% 29.95 in 10.0 mi WSW 21.9 mph 26.5 mph N/A   Overcast
7:02 PM 42.8 °F 34.3 °F 33.8 °F 70% 29.95 in 10.0 mi SW 19.6 mph 23.0 mph N/A   Overcast
7:22 PM 42.8 °F 34.5 °F 33.8 °F 70% 29.95 in 10.0 mi WSW 18.4 mph 26.5 mph N/A   Overcast
7:42 PM 42.8 °F 35.1 °F 33.8 °F 70% 29.96 in 10.0 mi WSW 16.1 mph 25.3 mph N/A   Overcast
8:02 PM 41.0 °F 32.2 °F 32.0 °F 70% 29.96 in 10.0 mi West 18.4 mph 24.2 mph N/A   Overcast
8:22 PM 41.0 °F 33.5 °F 33.8 °F 76% 29.96 in 10.0 mi WSW 13.8 mph 20.7 mph N/A   Overcast
8:42 PM 41.0 °F 31.9 °F 32.0 °F 70% 29.95 in 10.0 mi WSW 19.6 mph 23.0 mph N/A   Overcast
9:02 PM 41.0 °F 32.5 °F 32.0 °F 70% 29.96 in 10.0 mi WSW 17.3 mph 24.2 mph N/A   Overcast
9:22 PM 41.0 °F 33.1 °F 33.8 °F 76% 29.96 in 10.0 mi WSW 15.0 mph - N/A   Overcast
9:42 PM 41.0 °F 31.9 °F 32.0 °F 70% 29.95 in 10.0 mi WSW 19.6 mph 24.2 mph N/A   Overcast
10:02 PM 41.0 °F 31.6 °F 30.2 °F 65% 29.95 in 10.0 mi WSW 20.7 mph 28.8 mph N/A   Overcast
10:22 PM 41.0 °F 32.8 °F 32.0 °F 70% 29.95 in 10.0 mi WSW 16.1 mph 20.7 mph N/A   Overcast
10:42 PM 41.0 °F 33.1 °F 32.0 °F 70% 29.95 in 10.0 mi WSW 15.0 mph 21.9 mph N/A   Overcast
11:02 PM 39.2 °F 31.2 °F 30.2 °F 70% 29.95 in 10.0 mi WSW 13.8 mph - N/A   Overcast
11:22 PM 39.2 °F 30.2 °F 30.2 °F 70% 29.95 in 10.0 mi WSW 17.3 mph 24.2 mph N/A   Overcast
11:42 PM 39.2 °F 29.8 °F 30.2 °F 70% 29.96 in 10.0 mi WSW 18.4 mph 26.5 mph N/A   Overcast